Location: Darr Branch
(32.1532°N, 97.3853°W)
Time: 09:57:05
(UTC+00:00)

IRS-1D - Pass Details

Date: 18 November 2025
Orbit: 735 x 812 km, 98.8° (Epoch: 07 December)

Event Time Altitude Azimuth Distance (km) Brightness Sun altitude
Rises 12:13:27 0° 357° (N) 3,170 6.5 -10.4°
Reaches altitude 10° 12:16:04 10° 345° (NNW) 2,243 5.6 -9.9°
Maximum altitude 12:20:01 25° 291° (WNW) 1,460 4.4 -9.1°
Drops below altitude 10° 12:23:59 10° 237° (WSW) 2,244 5.6 -8.3°
Sets 12:26:37 0° 224° (SW) 3,171 6.4 -7.8°
